TDRS 12

Last updated on Tue Sep 16 2025 00:02:40 GMT+0000 (Coordinated Universal Time)

1 39504U 14004A 25258.50466894 -.00000284 00000+0 00000+0 0 9997 2 39504 3.7368 13.8539 0006104 214.0303 267.4301 1.00278728 41523
UTC large
Height (km)
Speed (km/s)
/
Latitude / Longitude
Inclination (degrees)
Orbital Period (minutes)
Azimuth
Elevation
Range (km)
Doppler Factor

Next 0 passes for location: London (51.5072 / 0.1276)

Sorry there are no passes over London.